Time,TemperatureF,DewpointF,PressureIn,WindDirection,WindDirectionDegrees,WindSpeedMPH,WindSpeedGustMPH,Humidity,HourlyPrecipIn,Conditions,Clouds,dailyrainin,SoftwareType,DateUTC
2013-04-16 00:00:00,58.1,51.3,28.39,NE,37,3.0,9.0,78,0.00,00:00,,0.00,WeatherDisplay:WD co,2013-04-15 21:00:00,
2013-04-16 00:05:00,58.3,51.4,28.39,East,82,3.0,9.0,78,0.00,00:05,,0.00,WeatherDisplay:WD co,2013-04-15 21:05:00,
2013-04-16 00:10:00,58.5,51.3,28.39,ENE,62,3.0,7.0,77,0.00,00:10,,0.00,WeatherDisplay:WD co,2013-04-15 21:10:00,
2013-04-16 00:15:00,58.5,51.3,28.39,NE,48,1.0,8.0,77,0.00,00:15,,0.00,WeatherDisplay:WD co,2013-04-15 21:15:00,
2013-04-16 00:20:00,58.5,52.0,28.40,NE,47,3.0,8.0,79,0.00,00:20,,0.00,WeatherDisplay:WD co,2013-04-15 21:20:00,
2013-04-16 00:25:00,57.9,52.5,28.40,NE,55,1.0,11.0,82,0.01,RA,,0.01,WeatherDisplay:WD co,2013-04-15 21:25:00,
2013-04-16 00:30:00,57.2,53.0,28.40,NE,40,6.0,9.0,86,0.01,RA,,0.01,WeatherDisplay:WD co,2013-04-15 21:30:00,
2013-04-16 00:35:00,56.7,52.5,28.39,NE,41,1.0,6.0,86,0.00,RA,,0.01,WeatherDisplay:WD co,2013-04-15 21:35:00,
2013-04-16 00:40:00,56.3,52.2,28.39,NE,38,3.0,15.0,86,0.00,RA,,0.01,WeatherDisplay:WD co,2013-04-15 21:40:00,
2013-04-16 00:45:00,56.3,52.2,28.39,NE,49,1.0,8.0,86,0.00,RA,,0.01,WeatherDisplay:WD co,2013-04-15 21:45:00,
2013-04-16 00:50:00,56.3,51.8,28.39,NE,47,1.0,10.0,85,0.00,RA,,0.01,WeatherDisplay:WD co,2013-04-15 21:50:00,
2013-04-16 01:00:00,56.3,52.5,28.40,NNE,25,0.0,4.0,87,0.00,RA,,0.01,WeatherDisplay:WD co,2013-04-15 22:00:00,
2013-04-16 01:05:00,56.3,52.8,28.40,NE,47,0.0,4.0,88,0.00,RA,,0.01,WeatherDisplay:WD co,2013-04-15 22:05:00,
2013-04-16 01:10:00,56.1,52.6,28.40,NE,45,1.0,5.0,88,0.00,RA,,0.01,WeatherDisplay:WD co,2013-04-15 22:10:00,
2013-04-16 01:15:00,55.9,52.4,28.39,East,90,0.0,2.0,88,0.00,RA,,0.01,WeatherDisplay:WD co,2013-04-15 22:15:00,
2013-04-16 01:20:00,55.9,52.1,28.39,ENE,61,0.0,6.0,87,0.00,RA,,0.01,WeatherDisplay:WD co,2013-04-15 22:20:00,
2013-04-16 01:25:00,55.8,51.9,28.39,NNE,32,0.0,3.0,87,0.00,01:25,,0.01,WeatherDisplay:WD co,2013-04-15 22:25:00,
2013-04-16 01:30:00,55.8,51.9,28.39,NE,36,0.0,7.0,87,0.00,01:30,,0.01,WeatherDisplay:WD co,2013-04-15 22:30:00,
2013-04-16 01:35:00,55.9,52.1,28.39,NE,49,0.0,8.0,87,0.00,01:35,,0.01,WeatherDisplay:WD co,2013-04-15 22:35:00,
2013-04-16 01:40:00,55.8,51.9,28.39,NE,52,0.0,4.0,87,0.00,01:40,,0.01,WeatherDisplay:WD co,2013-04-15 22:40:00,
2013-04-16 01:45:00,55.8,51.9,28.39,NNE,31,1.0,3.0,87,0.00,01:45,,0.01,WeatherDisplay:WD co,2013-04-15 22:45:00,
2013-04-16 01:55:00,55.8,52.3,28.39,NE,54,0.0,2.0,88,0.00,01:55,,0.01,WeatherDisplay:WD co,2013-04-15 22:55:00,
2013-04-16 02:00:00,55.8,52.3,28.39,East,87,0.0,3.0,88,0.00,02:00,,0.01,WeatherDisplay:WD co,2013-04-15 23:00:00,
2013-04-16 02:05:00,55.6,52.1,28.39,ESE,103,0.0,4.0,88,0.00,02:05,,0.01,WeatherDisplay:WD co,2013-04-15 23:05:00,
2013-04-16 02:10:00,55.6,52.4,28.38,NE,49,1.0,6.0,89,0.00,02:10,,0.01,WeatherDisplay:WD co,2013-04-15 23:10:00,
2013-04-16 02:15:00,55.6,52.4,28.39,NE,42,1.0,4.0,89,0.00,02:15,,0.01,WeatherDisplay:WD co,2013-04-15 23:15:00,
2013-04-16 02:20:00,55.4,52.2,28.38,NNE,29,0.0,3.0,89,0.00,02:20,,0.01,WeatherDisplay:WD co,2013-04-15 23:20:00,
2013-04-16 02:25:00,55.4,52.2,28.38,ENE,74,0.0,2.0,89,0.00,02:25,,0.01,WeatherDisplay:WD co,2013-04-15 23:25:00,
2013-04-16 02:30:00,55.6,52.4,28.38,East,93,0.0,6.0,89,0.00,02:30,,0.01,WeatherDisplay:WD co,2013-04-15 23:30:00,
2013-04-16 02:35:00,55.8,51.9,28.38,ENE,75,3.0,9.0,87,0.00,02:35,,0.01,WeatherDisplay:WD co,2013-04-15 23:35:00,
2013-04-16 02:40:00,55.9,51.8,28.38,ENE,77,1.0,10.0,86,0.00,02:40,,0.01,WeatherDisplay:WD co,2013-04-15 23:40:00,
2013-04-16 02:50:00,55.9,51.5,28.38,NE,35,1.0,4.0,85,0.00,02:50,,0.01,WeatherDisplay:WD co,2013-04-15 23:50:00,
2013-04-16 02:55:00,55.9,51.5,28.37,NE,35,0.0,4.0,85,0.00,02:55,,0.01,WeatherDisplay:WD co,2013-04-15 23:55:00,
2013-04-16 03:00:00,55.9,51.5,28.37,SSE,162,0.0,4.0,85,0.00,03:00,,0.01,WeatherDisplay:WD co,2013-04-16 00:00:00,
2013-04-16 03:05:00,55.9,51.2,28.37,East,99,0.0,8.0,84,0.00,03:05,,0.01,WeatherDisplay:WD co,2013-04-16 00:05:00,
2013-04-16 03:10:00,55.9,51.2,28.37,NW,322,2.0,7.0,84,0.00,03:10,,0.01,WeatherDisplay:WD co,2013-04-16 00:10:00,
2013-04-16 03:15:00,56.1,51.0,28.37,ENE,61,1.0,8.0,83,0.00,03:15,,0.01,WeatherDisplay:WD co,2013-04-16 00:15:00,
2013-04-16 03:25:00,56.3,51.2,28.36,East,81,2.0,7.0,83,0.00,03:25,,0.01,WeatherDisplay:WD co,2013-04-16 00:25:00,
2013-04-16 03:30:00,56.3,51.2,28.37,North,352,0.0,5.0,83,0.00,03:30,,0.01,WeatherDisplay:WD co,2013-04-16 00:30:00,
2013-04-16 03:35:00,56.3,51.2,28.37,North,1,0.0,3.0,83,0.00,03:35,,0.01,WeatherDisplay:WD co,2013-04-16 00:35:00,
2013-04-16 03:40:00,56.3,51.2,28.37,ENE,68,0.0,4.0,83,0.00,03:40,,0.01,WeatherDisplay:WD co,2013-04-16 00:40:00,
2013-04-16 03:45:00,56.3,51.2,28.38,ENE,67,1.0,6.0,83,0.00,03:45,,0.01,WeatherDisplay:WD co,2013-04-16 00:45:00,
2013-04-16 03:55:00,56.5,51.4,28.37,ESE,105,0.0,4.0,83,0.00,03:55,,0.01,WeatherDisplay:WD co,2013-04-16 00:55:00,
2013-04-16 04:00:00,56.3,51.2,28.37,NE,41,1.0,4.0,83,0.00,04:00,,0.01,WeatherDisplay:WD co,2013-04-16 01:00:00,
2013-04-16 04:05:00,56.5,51.4,28.38,NNE,26,1.0,8.0,83,0.00,04:05,,0.01,WeatherDisplay:WD co,2013-04-16 01:05:00,
2013-04-16 04:10:00,56.5,51.4,28.37,NE,35,0.0,5.0,83,0.00,04:10,,0.01,WeatherDisplay:WD co,2013-04-16 01:10:00,
2013-04-16 04:15:00,56.5,51.4,28.37,NNE,33,1.0,5.0,83,0.00,04:15,,0.01,WeatherDisplay:WD co,2013-04-16 01:15:00,
2013-04-16 04:20:00,56.7,51.6,28.37,NW,325,1.0,4.0,83,0.00,04:20,,0.01,WeatherDisplay:WD co,2013-04-16 01:20:00,
2013-04-16 04:25:00,56.7,51.6,28.37,ENE,72,1.0,4.0,83,0.00,04:25,,0.01,WeatherDisplay:WD co,2013-04-16 01:25:00,
2013-04-16 04:30:00,56.8,51.4,28.38,ENE,64,0.0,5.0,82,0.00,04:30,,0.01,WeatherDisplay:WD co,2013-04-16 01:30:00,
2013-04-16 04:35:00,56.8,51.4,28.38,NE,50,2.0,5.0,82,0.00,04:35,,0.01,WeatherDisplay:WD co,2013-04-16 01:35:00,
2013-04-16 04:40:00,56.8,51.4,28.38,NE,37,0.0,8.0,82,0.00,04:40,,0.01,WeatherDisplay:WD co,2013-04-16 01:40:00,
2013-04-16 04:45:00,57.0,52.2,28.38,North,4,1.0,6.0,84,0.00,04:45,,0.01,WeatherDisplay:WD co,2013-04-16 01:45:00,
2013-04-16 04:50:00,56.7,52.2,28.38,NNW,340,1.0,4.0,85,0.00,04:50,,0.01,WeatherDisplay:WD co,2013-04-16 01:50:00,
2013-04-16 04:55:00,56.5,52.7,28.39,SW,228,3.0,7.0,87,0.00,04:55,,0.01,WeatherDisplay:WD co,2013-04-16 01:55:00,
2013-04-16 05:00:00,55.9,52.1,28.38,NW,311,1.0,11.0,87,0.00,05:00,,0.01,WeatherDisplay:WD co,2013-04-16 02:00:00,
2013-04-16 05:05:00,55.0,52.2,28.38,North,353,2.0,10.0,90,0.00,05:05,,0.01,WeatherDisplay:WD co,2013-04-16 02:05:00,
2013-04-16 05:10:00,54.7,52.1,28.38,NE,44,3.0,8.0,91,0.00,05:10,,0.01,WeatherDisplay:WD co,2013-04-16 02:10:00,
2013-04-16 05:15:00,54.3,51.7,28.37,NE,55,2.0,6.0,91,0.01,RA,,0.02,WeatherDisplay:WD co,2013-04-16 02:15:00,
2013-04-16 05:20:00,54.1,51.9,28.36,ENE,62,2.0,6.0,92,0.01,RA,,0.02,WeatherDisplay:WD co,2013-04-16 02:20:00,
2013-04-16 05:25:00,54.0,51.7,28.37,NE,51,2.0,7.0,92,0.00,RA,,0.02,WeatherDisplay:WD co,2013-04-16 02:25:00,
2013-04-16 05:30:00,54.0,51.7,28.37,NE,36,2.0,7.0,92,0.00,RA,,0.02,WeatherDisplay:WD co,2013-04-16 02:30:00,
2013-04-16 05:35:00,54.0,51.7,28.37,NNE,29,2.0,4.0,92,0.00,RA,,0.02,WeatherDisplay:WD co,2013-04-16 02:35:00,
2013-04-16 05:40:00,54.0,51.7,28.37,NE,43,3.0,4.0,92,0.00,RA,,0.02,WeatherDisplay:WD co,2013-04-16 02:40:00,
2013-04-16 05:45:00,54.0,51.7,28.37,ENE,57,0.0,4.0,92,0.00,RA,,0.02,WeatherDisplay:WD co,2013-04-16 02:45:00,
2013-04-16 05:50:00,53.8,51.5,28.37,ENE,72,2.0,4.0,92,0.00,RA,,0.02,WeatherDisplay:WD co,2013-04-16 02:50:00,
2013-04-16 05:55:00,54.0,51.7,28.37,NNE,32,1.0,7.0,92,0.00,RA,,0.02,WeatherDisplay:WD co,2013-04-16 02:55:00,
2013-04-16 06:00:00,54.1,51.6,28.37,NNE,27,1.0,5.0,91,0.00,RA,,0.02,WeatherDisplay:WD co,2013-04-16 03:00:00,
2013-04-16 06:05:00,54.5,51.6,28.37,NE,42,1.0,5.0,90,0.00,RA,,0.02,WeatherDisplay:WD co,2013-04-16 03:05:00,
2013-04-16 06:10:00,54.7,51.5,28.37,NE,55,0.0,4.0,89,0.00,RA,,0.02,WeatherDisplay:WD co,2013-04-16 03:10:00,
2013-04-16 06:15:00,55.0,51.9,28.36,NE,44,1.0,3.0,89,0.00,06:15,,0.02,WeatherDisplay:WD co,2013-04-16 03:15:00,
2013-04-16 06:20:00,55.0,51.9,28.37,NNE,22,0.0,5.0,89,0.00,06:20,,0.02,WeatherDisplay:WD co,2013-04-16 03:20:00,
2013-04-16 06:25:00,54.9,51.4,28.37,North,10,1.0,3.0,88,0.00,06:25,,0.02,WeatherDisplay:WD co,2013-04-16 03:25:00,
2013-04-16 06:30:00,55.2,51.4,28.37,NNE,20,1.0,8.0,87,0.00,06:30,,0.02,WeatherDisplay:WD co,2013-04-16 03:30:00,
2013-04-16 06:35:00,55.6,51.1,28.37,NNE,24,1.0,6.0,85,0.00,06:35,,0.02,WeatherDisplay:WD co,2013-04-16 03:35:00,
2013-04-16 06:40:00,55.8,51.0,28.37,NNE,17,2.0,9.0,84,0.00,06:40,,0.02,WeatherDisplay:WD co,2013-04-16 03:40:00,
2013-04-16 06:45:00,56.1,51.4,28.37,NNE,29,3.0,8.0,84,0.00,06:45,,0.02,WeatherDisplay:WD co,2013-04-16 03:45:00,
2013-04-16 06:50:00,56.1,51.4,28.37,ENE,67,1.0,8.0,84,0.00,06:50,,0.02,WeatherDisplay:WD co,2013-04-16 03:50:00,
2013-04-16 06:55:00,56.3,51.2,28.37,ENE,74,1.0,7.0,83,0.00,06:55,,0.02,WeatherDisplay:WD co,2013-04-16 03:55:00,
2013-04-16 07:05:00,56.3,51.2,28.37,NE,56,3.0,6.0,83,0.00,07:05,,0.02,WeatherDisplay:WD co,2013-04-16 04:05:00,
2013-04-16 07:10:00,56.3,51.2,28.37,ENE,60,1.0,6.0,83,0.00,07:10,,0.02,WeatherDisplay:WD co,2013-04-16 04:10:00,
2013-04-16 07:15:00,56.5,51.4,28.38,SE,124,0.0,7.0,83,0.00,07:15,,0.02,WeatherDisplay:WD co,2013-04-16 04:15:00,
2013-04-16 07:20:00,56.7,51.6,28.38,East,88,2.0,4.0,83,0.00,07:20,,0.02,WeatherDisplay:WD co,2013-04-16 04:20:00,
2013-04-16 07:25:00,56.5,51.4,28.38,NE,43,0.0,3.0,83,0.00,07:25,,0.02,WeatherDisplay:WD co,2013-04-16 04:25:00,
2013-04-16 07:30:00,56.3,50.9,28.38,NNW,333,0.0,5.0,82,0.00,07:30,,0.02,WeatherDisplay:WD co,2013-04-16 04:30:00,
2013-04-16 07:35:00,56.3,50.9,28.38,NE,35,2.0,6.0,82,0.00,07:35,,0.02,WeatherDisplay:WD co,2013-04-16 04:35:00,
2013-04-16 07:40:00,57.4,51.9,28.38,ENE,58,1.0,6.0,82,0.00,07:40,,0.02,WeatherDisplay:WD co,2013-04-16 04:40:00,
2013-04-16 07:45:00,57.6,51.4,28.38,ENE,61,2.0,11.0,80,0.00,07:45,,0.02,WeatherDisplay:WD co,2013-04-16 04:45:00,
2013-04-16 07:50:00,57.7,51.6,28.38,ENE,59,1.0,7.0,80,0.00,07:50,,0.02,WeatherDisplay:WD co,2013-04-16 04:50:00,
2013-04-16 07:55:00,58.6,52.1,28.38,NE,41,0.0,3.0,79,0.00,07:55,,0.02,WeatherDisplay:WD co,2013-04-16 04:55:00,
2013-04-16 08:05:00,60.1,52.8,28.38,NNE,26,1.0,4.0,77,0.00,08:00,,0.02,WeatherDisplay:WD co,2013-04-16 05:05:00,
2013-04-16 08:10:00,62.4,54.0,28.38,NE,50,1.0,4.0,74,0.00,08:10,,0.02,WeatherDisplay:WD co,2013-04-16 05:10:00,
2013-04-16 08:15:00,63.0,53.8,28.39,SSE,156,0.0,6.0,72,0.00,08:15,,0.02,WeatherDisplay:WD co,2013-04-16 05:15:00,
2013-04-16 08:20:00,64.4,54.8,28.39,WSW,248,0.0,3.0,71,0.00,08:20,,0.02,WeatherDisplay:WD co,2013-04-16 05:20:00,
2013-04-16 08:30:00,65.1,53.9,28.38,SSW,193,1.0,3.0,67,0.00,08:30,,0.02,WeatherDisplay:WD co,2013-04-16 05:30:00,
2013-04-16 08:35:00,65.1,53.5,28.39,ESE,107,3.0,7.0,66,0.00,08:35,,0.02,WeatherDisplay:WD co,2013-04-16 05:35:00,
2013-04-16 08:40:00,64.6,53.4,28.39,NE,36,0.0,4.0,67,0.00,08:40,,0.02,WeatherDisplay:WD co,2013-04-16 05:40:00,
2013-04-16 08:45:00,64.4,53.2,28.38,North,8,1.0,5.0,67,0.00,08:45,,0.02,WeatherDisplay:WD co,2013-04-16 05:45:00,
2013-04-16 08:50:00,65.1,53.9,28.39,NNW,348,1.0,4.0,67,0.00,08:50,,0.02,WeatherDisplay:WD co,2013-04-16 05:50:00,
2013-04-16 08:55:00,65.3,53.6,28.38,North,5,1.0,4.0,66,0.00,08:55,,0.02,WeatherDisplay:WD co,2013-04-16 05:55:00,
2013-04-16 09:00:00,66.2,54.1,28.38,NE,45,1.0,4.0,65,0.00,09:00,,0.02,WeatherDisplay:WD co,2013-04-16 06:00:00,
2013-04-16 09:05:00,66.2,53.2,28.38,NE,48,2.0,6.0,63,0.00,09:05,,0.02,WeatherDisplay:WD co,2013-04-16 06:05:00,
2013-04-16 09:10:00,66.0,52.6,28.38,ENE,58,2.0,9.0,62,0.00,09:10,,0.02,WeatherDisplay:WD co,2013-04-16 06:10:00,
2013-04-16 09:15:00,66.2,52.8,28.38,ENE,60,3.0,6.0,62,0.00,09:15,,0.02,WeatherDisplay:WD co,2013-04-16 06:15:00,
2013-04-16 09:20:00,65.7,52.3,28.38,NE,44,5.0,6.0,62,0.00,09:20,,0.02,WeatherDisplay:WD co,2013-04-16 06:20:00,
2013-04-16 09:25:00,66.4,53.0,28.38,ENE,76,2.0,6.0,62,0.00,09:25,,0.02,WeatherDisplay:WD co,2013-04-16 06:25:00,
2013-04-16 09:35:00,65.3,51.9,28.38,SE,141,3.0,11.0,62,0.00,09:35,,0.02,WeatherDisplay:WD co,2013-04-16 06:35:00,
2013-04-16 09:40:00,66.4,52.5,28.38,East,94,1.0,7.0,61,0.00,09:40,,0.02,WeatherDisplay:WD co,2013-04-16 06:40:00,
2013-04-16 09:45:00,67.1,52.7,28.37,NNE,15,1.0,8.0,60,0.00,09:45,,0.02,WeatherDisplay:WD co,2013-04-16 06:45:00,
2013-04-16 09:50:00,67.8,53.0,28.37,NNE,15,2.0,6.0,59,0.00,09:50,,0.02,WeatherDisplay:WD co,2013-04-16 06:50:00,
2013-04-16 09:55:00,67.6,52.8,28.38,South,181,1.0,8.0,59,0.00,09:55,,0.02,WeatherDisplay:WD co,2013-04-16 06:55:00,
2013-04-16 10:00:00,67.6,52.8,28.37,SE,130,5.0,9.0,59,0.00,10:00,,0.02,WeatherDisplay:WD co,2013-04-16 07:00:00,
2013-04-16 10:05:00,67.6,52.8,28.37,NNE,32,3.0,8.0,59,0.00,10:05,,0.02,WeatherDisplay:WD co,2013-04-16 07:05:00,
2013-04-16 10:10:00,67.6,52.8,28.37,NNW,336,1.0,7.0,59,0.00,10:10,,0.02,WeatherDisplay:WD co,2013-04-16 07:10:00,
2013-04-16 10:20:00,67.6,52.8,28.36,SSW,203,3.0,8.0,59,0.00,10:20,,0.02,WeatherDisplay:WD co,2013-04-16 07:20:00,
2013-04-16 10:25:00,68.2,52.8,28.36,ESE,114,3.0,7.0,58,0.00,10:25,,0.02,WeatherDisplay:WD co,2013-04-16 07:25:00,
2013-04-16 10:30:00,68.4,53.5,28.36,ENE,61,3.0,10.0,59,0.00,10:30,,0.02,WeatherDisplay:WD co,2013-04-16 07:30:00,
2013-04-16 10:35:00,68.2,52.4,28.36,NE,38,2.0,11.0,57,0.00,10:35,,0.02,WeatherDisplay:WD co,2013-04-16 07:35:00,
2013-04-16 10:40:00,69.3,52.9,28.36,ENE,69,1.0,7.0,56,0.00,10:40,,0.02,WeatherDisplay:WD co,2013-04-16 07:40:00,
2013-04-16 10:45:00,69.4,52.6,28.36,ENE,57,3.0,8.0,55,0.00,10:45,,0.02,WeatherDisplay:WD co,2013-04-16 07:45:00,
2013-04-16 10:50:00,68.4,52.0,28.36,NE,40,3.0,8.0,56,0.00,10:50,,0.02,WeatherDisplay:WD co,2013-04-16 07:50:00,
2013-04-16 10:55:00,68.4,52.0,28.36,NE,49,6.0,11.0,56,0.00,10:55,,0.02,WeatherDisplay:WD co,2013-04-16 07:55:00,
2013-04-16 11:00:00,68.5,50.2,28.36,East,90,8.0,14.0,52,0.00,11:00,,0.02,WeatherDisplay:WD co,2013-04-16 08:00:00,
2013-04-16 11:05:00,68.0,49.7,28.35,ENE,75,7.0,15.0,52,0.00,11:05,,0.02,WeatherDisplay:WD co,2013-04-16 08:05:00,
2013-04-16 11:10:00,66.7,49.1,28.36,ENE,71,6.0,21.0,53,0.00,11:10,,0.02,WeatherDisplay:WD co,2013-04-16 08:10:00,
2013-04-16 11:20:00,68.0,50.2,28.36,NNE,29,6.0,11.0,53,0.00,11:20,,0.02,WeatherDisplay:WD co,2013-04-16 08:20:00,
2013-04-16 11:25:00,68.2,49.9,28.36,NNE,27,3.0,15.0,52,0.00,11:25,,0.02,WeatherDisplay:WD co,2013-04-16 08:25:00,
2013-04-16 11:30:00,68.5,50.2,28.35,ENE,59,5.0,12.0,52,0.00,11:30,,0.02,WeatherDisplay:WD co,2013-04-16 08:30:00,
2013-04-16 11:35:00,68.7,49.3,28.36,ENE,73,9.0,20.0,50,0.00,11:35,,0.02,WeatherDisplay:WD co,2013-04-16 08:35:00,
2013-04-16 11:40:00,68.5,49.7,28.36,NE,53,3.0,20.0,51,0.00,11:40,,0.02,WeatherDisplay:WD co,2013-04-16 08:40:00,
2013-04-16 11:45:00,68.7,49.9,28.35,NE,53,6.0,17.0,51,0.00,11:45,,0.02,WeatherDisplay:WD co,2013-04-16 08:45:00,
2013-04-16 11:50:00,68.0,49.7,28.36,NNE,26,8.0,17.0,52,0.00,11:50,,0.02,WeatherDisplay:WD co,2013-04-16 08:50:00,
2013-04-16 11:55:00,67.6,49.9,28.36,NE,50,8.0,19.0,53,0.00,11:55,,0.02,WeatherDisplay:WD co,2013-04-16 08:55:00,
2013-04-16 12:00:00,67.8,50.1,28.36,NE,46,5.0,19.0,53,0.00,12:00,,0.02,WeatherDisplay:WD co,2013-04-16 09:00:00,
2013-04-16 12:05:00,68.5,50.7,28.36,East,80,5.0,12.0,53,0.00,12:05,,0.02,WeatherDisplay:WD co,2013-04-16 09:05:00,
2013-04-16 12:10:00,67.8,50.1,28.36,NE,40,8.0,16.0,53,0.00,12:10,,0.02,WeatherDisplay:WD co,2013-04-16 09:10:00,
2013-04-16 12:15:00,66.4,49.2,28.36,NNE,31,8.0,21.0,54,0.00,12:15,,0.02,WeatherDisplay:WD co,2013-04-16 09:15:00,
2013-04-16 12:20:00,65.7,49.0,28.36,NE,44,10.0,21.0,55,0.00,12:20,,0.02,WeatherDisplay:WD co,2013-04-16 09:20:00,
2013-04-16 12:25:00,66.4,49.2,28.36,NE,35,6.0,21.0,54,0.00,12:25,,0.02,WeatherDisplay:WD co,2013-04-16 09:25:00,
2013-04-16 12:30:00,66.7,49.6,28.35,NE,37,6.0,20.0,54,0.00,12:30,,0.02,WeatherDisplay:WD co,2013-04-16 09:30:00,
2013-04-16 12:35:00,67.1,50.4,28.35,NE,55,2.0,18.0,55,0.00,12:35,,0.02,WeatherDisplay:WD co,2013-04-16 09:35:00,
2013-04-16 12:40:00,68.0,50.2,28.35,NE,53,7.0,17.0,53,0.00,12:40,,0.02,WeatherDisplay:WD co,2013-04-16 09:40:00,
2013-04-16 12:50:00,68.2,49.9,28.35,NE,56,9.0,17.0,52,0.00,12:50,,0.02,WeatherDisplay:WD co,2013-04-16 09:50:00,
2013-04-16 12:55:00,67.8,49.5,28.36,NE,56,6.0,19.0,52,0.00,12:55,,0.02,WeatherDisplay:WD co,2013-04-16 09:55:00,
2013-04-16 13:00:00,66.9,49.2,28.36,ENE,65,10.0,17.0,53,0.00,13:00,,0.02,WeatherDisplay:WD co,2013-04-16 10:00:00,
2013-04-16 13:05:00,66.0,48.9,28.36,ENE,57,8.0,16.0,54,0.00,13:05,,0.02,WeatherDisplay:WD co,2013-04-16 10:05:00,
2013-04-16 13:10:00,65.5,48.9,28.35,NNE,26,1.0,15.0,55,0.00,13:10,,0.02,WeatherDisplay:WD co,2013-04-16 10:10:00,
2013-04-16 13:15:00,66.7,49.6,28.35,North,8,8.0,16.0,54,0.00,13:15,,0.02,WeatherDisplay:WD co,2013-04-16 10:15:00,
2013-04-16 13:25:00,67.1,49.9,28.35,ENE,63,9.0,17.0,54,0.00,13:25,,0.02,WeatherDisplay:WD co,2013-04-16 10:25:00,
2013-04-16 13:30:00,66.4,49.7,28.35,ENE,59,7.0,20.0,55,0.00,13:30,,0.02,WeatherDisplay:WD co,2013-04-16 10:30:00,
2013-04-16 13:35:00,65.8,49.7,28.35,NE,48,8.0,17.0,56,0.00,13:35,,0.02,WeatherDisplay:WD co,2013-04-16 10:35:00,
2013-04-16 13:40:00,66.0,49.4,28.35,East,80,3.0,17.0,55,0.00,13:40,,0.02,WeatherDisplay:WD co,2013-04-16 10:40:00,
2013-04-16 13:45:00,66.0,49.4,28.35,East,80,3.0,17.0,55,0.00,13:40,,0.02,WeatherDisplay:WD co,2013-04-16 10:45:00,
2013-04-16 14:35:00,68.7,49.3,28.35,ESE,105,5.0,16.0,50,0.00,14:35,,0.02,WeatherDisplay:WD co,2013-04-16 11:35:00,
2013-04-16 14:45:00,68.4,49.0,28.35,NE,49,8.0,17.0,50,0.00,14:45,,0.02,WeatherDisplay:WD co,2013-04-16 11:45:00,
2013-04-16 14:50:00,68.7,49.3,28.35,NE,54,5.0,19.0,50,0.00,14:50,,0.02,WeatherDisplay:WD co,2013-04-16 11:50:00,
2013-04-16 14:55:00,68.4,49.5,28.34,ENE,62,0.0,19.0,51,0.00,14:55,,0.02,WeatherDisplay:WD co,2013-04-16 11:55:00,
2013-04-16 15:15:00,68.9,50.0,28.34,ENE,63,3.0,14.0,51,0.00,15:10,,0.02,WeatherDisplay:WD co,2013-04-16 12:15:00,
2013-04-16 15:20:00,70.5,51.0,28.34,NE,47,2.0,13.0,50,0.00,15:20,,0.02,WeatherDisplay:WD co,2013-04-16 12:20:00,
2013-04-16 15:25:00,70.5,51.0,28.34,NE,47,2.0,13.0,50,0.00,15:20,,0.02,WeatherDisplay:WD co,2013-04-16 12:25:00,
2013-04-16 16:05:00,70.5,51.5,28.33,NE,50,3.0,7.0,51,0.00,16:05,,0.02,WeatherDisplay:WD co,2013-04-16 13:05:00,
2013-04-16 16:10:00,70.0,51.5,28.33,NNE,18,3.0,11.0,52,0.00,16:10,,0.02,WeatherDisplay:WD co,2013-04-16 13:10:00,
2013-04-16 16:15:00,69.8,51.4,28.33,NE,40,6.0,14.0,52,0.00,16:15,,0.02,WeatherDisplay:WD co,2013-04-16 13:15:00,
2013-04-16 16:20:00,69.3,51.4,28.33,NE,51,6.0,15.0,53,0.00,16:20,,0.02,WeatherDisplay:WD co,2013-04-16 13:20:00,
2013-04-16 16:25:00,68.5,51.7,28.33,NE,46,8.0,15.0,55,0.00,16:25,,0.02,WeatherDisplay:WD co,2013-04-16 13:25:00,
2013-04-16 16:35:00,67.1,51.8,28.34,North,1,5.0,12.0,58,0.00,16:35,,0.02,WeatherDisplay:WD co,2013-04-16 13:35:00,
2013-04-16 16:40:00,66.4,51.2,28.33,East,82,3.0,11.0,58,0.00,16:40,,0.02,WeatherDisplay:WD co,2013-04-16 13:40:00,
2013-04-16 16:50:00,65.7,50.9,28.34,NE,46,6.0,11.0,59,0.00,16:50,,0.02,WeatherDisplay:WD co,2013-04-16 13:50:00,
2013-04-16 16:55:00,65.3,50.6,28.34,NE,41,3.0,12.0,59,0.00,16:55,,0.02,WeatherDisplay:WD co,2013-04-16 13:55:00,
2013-04-16 17:00:00,65.1,50.4,28.34,NE,42,5.0,12.0,59,0.00,17:00,,0.02,WeatherDisplay:WD co,2013-04-16 14:00:00,
2013-04-16 17:10:00,64.4,50.2,28.35,NNE,25,3.0,11.0,60,0.00,17:10,,0.02,WeatherDisplay:WD co,2013-04-16 14:10:00,
2013-04-16 17:15:00,64.4,50.2,28.35,NNW,337,2.0,13.0,60,0.00,17:15,,0.02,WeatherDisplay:WD co,2013-04-16 14:15:00,
2013-04-16 17:20:00,64.0,50.3,28.35,NE,39,3.0,9.0,61,0.00,17:20,,0.02,WeatherDisplay:WD co,2013-04-16 14:20:00,
2013-04-16 17:25:00,64.0,49.4,28.36,NE,50,6.0,15.0,59,0.00,17:25,,0.02,WeatherDisplay:WD co,2013-04-16 14:25:00,
2013-04-16 17:40:00,63.5,48.9,28.35,NE,35,3.0,10.0,59,0.00,17:40,,0.02,WeatherDisplay:WD co,2013-04-16 14:40:00,
2013-04-16 17:45:00,63.5,48.5,28.35,NE,55,5.0,14.0,58,0.00,17:45,,0.02,WeatherDisplay:WD co,2013-04-16 14:45:00,
2013-04-16 17:50:00,63.3,48.7,28.35,NE,51,3.0,13.0,59,0.00,17:50,,0.02,WeatherDisplay:WD co,2013-04-16 14:50:00,
2013-04-16 18:00:00,63.1,49.5,28.35,NE,49,3.0,14.0,61,0.00,18:00,,0.02,WeatherDisplay:WD co,2013-04-16 15:00:00,
2013-04-16 18:05:00,62.8,49.6,28.35,NE,54,3.0,11.0,62,0.00,18:05,,0.02,WeatherDisplay:WD co,2013-04-16 15:05:00,
2013-04-16 18:10:00,62.8,49.6,28.35,NNE,27,5.0,10.0,62,0.00,18:10,,0.02,WeatherDisplay:WD co,2013-04-16 15:10:00,
2013-04-16 18:15:00,62.4,49.7,28.35,NE,38,1.0,11.0,63,0.00,18:15,,0.02,WeatherDisplay:WD co,2013-04-16 15:15:00,
2013-04-16 18:20:00,62.6,49.8,28.35,NNE,16,5.0,10.0,63,0.00,18:20,,0.02,WeatherDisplay:WD co,2013-04-16 15:20:00,
2013-04-16 18:25:00,62.4,49.7,28.35,NE,47,6.0,12.0,63,0.00,18:25,,0.02,WeatherDisplay:WD co,2013-04-16 15:25:00,
2013-04-16 18:30:00,62.4,50.1,28.35,ENE,72,3.0,9.0,64,0.00,18:30,,0.02,WeatherDisplay:WD co,2013-04-16 15:30:00,
2013-04-16 18:35:00,62.2,49.9,28.35,NE,54,3.0,12.0,64,0.00,18:35,,0.02,WeatherDisplay:WD co,2013-04-16 15:35:00,
2013-04-16 18:40:00,62.8,50.0,28.35,NE,36,3.0,11.0,63,0.00,18:40,,0.02,WeatherDisplay:WD co,2013-04-16 15:40:00,
2013-04-16 18:45:00,63.3,50.5,28.35,NE,43,5.0,12.0,63,0.00,18:45,,0.02,WeatherDisplay:WD co,2013-04-16 15:45:00,
2013-04-16 18:50:00,63.3,50.5,28.36,NNE,25,5.0,10.0,63,0.00,18:50,,0.02,WeatherDisplay:WD co,2013-04-16 15:50:00,
2013-04-16 18:55:00,63.3,50.5,28.36,NNE,25,5.0,10.0,63,0.00,18:50,,0.02,WeatherDisplay:WD co,2013-04-16 15:55:00,
2013-04-16 19:00:00,62.2,50.3,28.35,NNW,348,2.0,8.0,65,0.00,19:00,,0.02,WeatherDisplay:WD co,2013-04-16 16:00:00,
2013-04-16 19:05:00,62.1,50.2,28.36,NE,34,5.0,13.0,65,0.00,19:05,,0.02,WeatherDisplay:WD co,2013-04-16 16:05:00,
2013-04-16 19:10:00,61.7,50.2,28.36,NE,53,3.0,10.0,66,0.00,19:10,,0.02,WeatherDisplay:WD co,2013-04-16 16:10:00,
2013-04-16 19:15:00,61.5,50.1,28.36,NE,45,6.0,11.0,66,0.00,19:15,,0.02,WeatherDisplay:WD co,2013-04-16 16:15:00,
2013-04-16 19:20:00,61.3,50.3,28.36,NE,55,7.0,11.0,67,0.00,19:20,,0.02,WeatherDisplay:WD co,2013-04-16 16:20:00,
2013-04-16 19:25:00,61.0,50.3,28.36,NE,54,3.0,10.0,68,0.00,19:25,,0.02,WeatherDisplay:WD co,2013-04-16 16:25:00,
2013-04-16 19:30:00,61.0,50.3,28.36,East,95,2.0,7.0,68,0.00,19:30,,0.02,WeatherDisplay:WD co,2013-04-16 16:30:00,
2013-04-16 19:35:00,60.8,50.6,28.37,NNE,31,3.0,5.0,69,0.00,19:35,,0.02,WeatherDisplay:WD co,2013-04-16 16:35:00,
2013-04-16 19:40:00,60.6,50.8,28.37,North,1,1.0,8.0,70,0.00,19:40,,0.02,WeatherDisplay:WD co,2013-04-16 16:40:00,
2013-04-16 19:45:00,60.4,51.0,28.38,North,3,2.0,8.0,71,0.00,19:45,,0.02,WeatherDisplay:WD co,2013-04-16 16:45:00,
2013-04-16 19:50:00,60.1,51.0,28.37,NE,56,1.0,7.0,72,0.00,19:50,,0.02,WeatherDisplay:WD co,2013-04-16 16:50:00,
2013-04-16 19:55:00,59.9,50.8,28.38,ENE,58,6.0,8.0,72,0.00,19:55,,0.02,WeatherDisplay:WD co,2013-04-16 16:55:00,
2013-04-16 20:00:00,59.7,50.7,28.38,NE,39,1.0,15.0,72,0.00,20:00,,0.02,WeatherDisplay:WD co,2013-04-16 17:00:00,
2013-04-16 20:05:00,59.7,51.0,28.38,NE,46,3.0,8.0,73,0.00,20:05,,0.02,WeatherDisplay:WD co,2013-04-16 17:05:00,
2013-04-16 20:10:00,59.5,50.9,28.38,North,8,1.0,8.0,73,0.00,20:10,,0.02,WeatherDisplay:WD co,2013-04-16 17:10:00,
2013-04-16 20:15:00,59.4,50.7,28.38,NNW,332,3.0,8.0,73,0.00,20:15,,0.02,WeatherDisplay:WD co,2013-04-16 17:15:00,
2013-04-16 20:25:00,59.4,51.1,28.38,SW,216,0.0,5.0,74,0.00,20:25,,0.02,WeatherDisplay:WD co,2013-04-16 17:25:00,
2013-04-16 20:30:00,59.2,50.9,28.39,North,5,6.0,10.0,74,0.00,20:30,,0.02,WeatherDisplay:WD co,2013-04-16 17:30:00,
2013-04-16 20:35:00,59.2,51.3,28.39,ENE,63,1.0,10.0,75,0.00,20:35,,0.02,WeatherDisplay:WD co,2013-04-16 17:35:00,
2013-04-16 20:40:00,59.2,50.9,28.39,SE,143,2.0,7.0,74,0.00,20:40,,0.02,WeatherDisplay:WD co,2013-04-16 17:40:00,
2013-04-16 20:45:00,59.2,51.3,28.39,South,191,3.0,8.0,75,0.00,20:45,,0.02,WeatherDisplay:WD co,2013-04-16 17:45:00,
2013-04-16 20:50:00,59.2,51.3,28.39,East,95,2.0,6.0,75,0.00,20:50,,0.02,WeatherDisplay:WD co,2013-04-16 17:50:00,
2013-04-16 20:55:00,59.0,51.1,28.39,ENE,58,3.0,11.0,75,0.00,20:55,,0.02,WeatherDisplay:WD co,2013-04-16 17:55:00,
2013-04-16 21:00:00,59.0,51.1,28.39,ENE,61,1.0,9.0,75,0.00,21:00,,0.02,WeatherDisplay:WD co,2013-04-16 18:00:00,
2013-04-16 21:05:00,58.8,50.9,28.39,NNE,22,2.0,7.0,75,0.00,21:05,,0.02,WeatherDisplay:WD co,2013-04-16 18:05:00,
2013-04-16 21:10:00,59.0,51.1,28.40,North,1,1.0,4.0,75,0.00,21:10,,0.02,WeatherDisplay:WD co,2013-04-16 18:10:00,
2013-04-16 21:20:00,58.8,51.3,28.41,NE,55,3.0,8.0,76,0.00,21:20,,0.02,WeatherDisplay:WD co,2013-04-16 18:20:00,
2013-04-16 21:30:00,58.8,51.3,28.40,SSW,197,1.0,7.0,76,0.00,21:30,,0.02,WeatherDisplay:WD co,2013-04-16 18:30:00,
2013-04-16 21:35:00,58.8,51.3,28.41,NE,49,1.0,6.0,76,0.00,21:35,,0.02,WeatherDisplay:WD co,2013-04-16 18:35:00,
2013-04-16 21:40:00,58.8,51.3,28.41,NE,35,6.0,11.0,76,0.00,21:40,,0.02,WeatherDisplay:WD co,2013-04-16 18:40:00,
2013-04-16 21:45:00,58.6,51.1,28.41,NE,36,2.0,11.0,76,0.00,21:45,,0.02,WeatherDisplay:WD co,2013-04-16 18:45:00,
2013-04-16 21:50:00,58.8,51.3,28.41,NNE,20,2.0,11.0,76,0.00,21:50,,0.02,WeatherDisplay:WD co,2013-04-16 18:50:00,
2013-04-16 21:55:00,58.8,51.3,28.41,NNE,18,2.0,8.0,76,0.00,21:55,,0.02,WeatherDisplay:WD co,2013-04-16 18:55:00,
2013-04-16 22:00:00,58.8,51.3,28.41,NNE,24,5.0,10.0,76,0.00,22:00,,0.02,WeatherDisplay:WD co,2013-04-16 19:00:00,
2013-04-16 22:05:00,58.8,51.3,28.41,NE,44,5.0,9.0,76,0.00,22:05,,0.02,WeatherDisplay:WD co,2013-04-16 19:05:00,
2013-04-16 22:10:00,59.0,51.4,28.41,NE,46,1.0,11.0,76,0.00,22:10,,0.02,WeatherDisplay:WD co,2013-04-16 19:10:00,
2013-04-16 22:15:00,58.8,51.3,28.41,NE,40,2.0,9.0,76,0.00,22:15,,0.02,WeatherDisplay:WD co,2013-04-16 19:15:00,
2013-04-16 22:20:00,59.0,51.4,28.41,NNE,14,2.0,6.0,76,0.00,22:20,,0.02,WeatherDisplay:WD co,2013-04-16 19:20:00,
2013-04-16 22:30:00,59.0,51.4,28.41,NE,56,2.0,13.0,76,0.00,22:30,,0.02,WeatherDisplay:WD co,2013-04-16 19:30:00,
2013-04-16 22:35:00,58.8,51.3,28.42,NNE,23,2.0,7.0,76,0.00,22:35,,0.02,WeatherDisplay:WD co,2013-04-16 19:35:00,
2013-04-16 22:40:00,58.8,51.3,28.42,ENE,69,2.0,8.0,76,0.00,22:40,,0.02,WeatherDisplay:WD co,2013-04-16 19:40:00,
2013-04-16 22:45:00,58.8,50.9,28.41,NE,56,6.0,10.0,75,0.00,22:45,,0.02,WeatherDisplay:WD co,2013-04-16 19:45:00,
2013-04-16 22:50:00,58.8,50.9,28.41,ENE,58,3.0,8.0,75,0.00,22:50,,0.02,WeatherDisplay:WD co,2013-04-16 19:50:00,
2013-04-16 22:55:00,58.8,50.9,28.41,NE,50,1.0,9.0,75,0.00,22:55,,0.02,WeatherDisplay:WD co,2013-04-16 19:55:00,
2013-04-16 23:00:00,58.8,50.9,28.41,NE,49,1.0,8.0,75,0.00,23:00,,0.02,WeatherDisplay:WD co,2013-04-16 20:00:00,
2013-04-16 23:05:00,59.0,51.1,28.41,NE,43,1.0,9.0,75,0.00,23:05,,0.02,WeatherDisplay:WD co,2013-04-16 20:05:00,
2013-04-16 23:15:00,58.8,50.5,28.41,ENE,60,1.0,7.0,74,0.00,23:15,,0.02,WeatherDisplay:WD co,2013-04-16 20:15:00,
2013-04-16 23:20:00,58.8,50.2,28.41,NNE,30,1.0,11.0,73,0.00,23:20,,0.02,WeatherDisplay:WD co,2013-04-16 20:20:00,
2013-04-16 23:25:00,59.0,50.4,28.41,NNE,14,1.0,6.0,73,0.00,23:25,,0.02,WeatherDisplay:WD co,2013-04-16 20:25:00,
2013-04-16 23:35:00,59.0,49.2,28.41,NE,56,1.0,10.0,70,0.00,23:35,,0.02,WeatherDisplay:WD co,2013-04-16 20:35:00,
2013-04-16 23:55:00,59.2,49.0,28.41,NE,37,0.0,3.0,69,0.00,23:55,,0.02,WeatherDisplay:WD co,2013-04-16 20:55:00,